Sabadell Airport

Jump to: basic info | weather | runways | comments

Related pages: nearby airports | nearby navaids | notams | map

Basic information (top)

Codes: QSA LELL
Location: lon 41.520901, lat 2.105080, elev 485 ft / 148 m msl
Status: small_airport

Weather (top)

Current conditions (rec'd 2014/10/31 16:30Z):

LELL 311630Z 12004KT 080V160 9000 FEW020 19/15 Q1023

Airport forecast (rec'd 2014/10/31 15:32Z):

TAF LELL 311400Z 3115/0115 VRB04KT 9999 SCT020 TX23/0113Z TN11/0106Z PROB30 
      TEMPO 0103/0109 0800 BCFG BKN008

Runways (top)

13/31: 2,953 ft (900 m) — surface unknown — not lighted

Latest comments (top)

GA Pilots useful info: Last visit: summer 2014 Fuel: Avgas ... [read]

Great service, easy in & out: Here our expenses for 3 days in ... [read]

great service, great people: So going on a helicopter through spain ... [read]

More... (top)

See also NOTAMs and nearby airports and navaids, or visit the Sabadell Airport page at the main OurAirports website..